SCP
0 0 0 0 0 0 -0 -0 0 0 0 0 -0 0 -0 0 0 0 0 -0 0 0 0 0 0 0 0 0 0 0 -0 -0 -0 0 0 0 0 0 0 -0 -0 0 0 0 -0 -0 -0 -0 -0
0 0 0 0 0 0 0 0 0 0 0 0 0 0 -0 0 0 0 -0 0 0 0 0 0 0 0 0 0 0 0 -0 -0 -0 0 0 0 0 0 -0 -0 0 -0 -0 -0 -0 -0 -0 -0 -0
0 0 0 0 0 -0 0 0 0 0 0 0 0 0 0 0 -0 0 -0 -0 0 0 0 0 0 0 0 0 0 0 -0 0 0 0 0 0 0 -0 0 -0 -0 -0 -0 -0 -0 -0 -0 -0 -0
0 0 0 0 0 -0 0 0 0 0 0 0 0 0 0 0 0 0 0 -0 -0 0 0 0 0 0 0 0 0 -0 0 -0 0 0 0 0 0 -0 -0 -0 -0 -0 -0 -0 -0 -0 -0 -0 -0
0 0 0 0 0 0 0 0 0 0 0 0 0 0 0 0 0 -0 -0 0 -0 0 -0 0 0 0 0 0 0 0 0 -0 0 0 -0 -0 -0 -0 -0 -0 -0 -0 -0 -0 -0 -0 -0 -0 -0
0 0 0 0 0 0 0 0 0 0 0 0 0 0 0 0 0 0 0 -0 0 0 0 0 0 0 0 0 0 0 0 0 -0 -0 -0 -0 -0 -0 -0 -0 -0 -0 -0 -0 -0 -0 -0 -0 -0
0 0 0 0 0 0 0 0 0 0 0 0 0 0 0 0 0 0 0 -0 -0 0 0 0 0 0 0 0 0 0 0 0 0 0 -0 -0 -0 -0 0 0 -0 0 0 0 0 0 -0 0 0
0 0 0 0 0 0 0 0 0 0 0 0 0 0 0 0 0 0 0 0 -0 0 0 0 0 0 0 0 0 0 0 0 0 0 0 0 0 0 0 0 0 0 0 0 0 0 0 0 0
0 0 0 0 0 0 0 0 0 0 0 0 0 0 0 0 0 0 0 0 0 0 0 0 0 0 0 0 0 0 0 0 0 0 0 0 0 0 0 0 0 0 0 0 0 0 0 0 0
0 0 0 0 0 0 0 0 0 0 0 0 0 0 0 0 0 0 0 0 0 0 0 0 0 0 0 0 0 0 0 0 0 0 0 0 0 0 0 0 0 0 0 0 0 0 0 0 0
0 0 0 0 0 0 0 0 0 0 0 0 0 0 0 0 0 0 0 0 0 0 0 0 0 0 0 0 0 0 0 0 0 0 0 0 0 0 0 0 0 0 0 0 0 0 0 0 0
0 0 0 0 0 0 0 0 0 0 0 0 0 0 0 0 0 0 0 0 0 0 0 0 0 0 0 0 0 0 0 0 0 0 0 0 0 0 0 0 0 0 0 0 0 0 0 0 0
0 0 0 0 0 0 0 0 0 0 0 0 0 0 0 0 0 0 0 0 0 0 0 0 0 0 0 0 0 0 0 0 0 0 0 0 0 0 0 0 0 0 0 0 0 0 0 0 0
0 0 0 0 0 0 0 0 0 0 0 0 0 0 0 0 0 0 0 0 0 0 0 0 0 0 0 0 0 0 0 0 0 0 0 0 0 0 0 0 0 0 0 0 0 0 0 0 0
0 0 0 0 0 0 0 0 0 0 0 0 0 0 0 0 0 0 0 0 0 0 0 0 0 0 0 0 0 0 0 0 0 0 0 0 0 0 0 0 0 0 0 0 0 0 0 0 0
0 0 0 0 0 0 0 0 0 0 0 0 0 0 0 0 0 0 0 0 0 0 0 0 0 0 0 0 0 0 0 0 0 0 0 0 0 0 0 0 0 0 0 0 0 0 0 0 0
0 0 0 0 0 0 0 0 0 0 0 0 0 0 0 0 0 0 0 0 0 0 0 0 0 0 0 0 0 0 0 0 0 0 0 0 0 0 0 0 0 0 0 0 0 0 0 0 0
0 0 0 0 0 0 0 0 0 0 0 0 0 0 0 0 0 0 0 0 0 0 0 0 0 0 0 0 0 0 0 0 0 0 0 0 0 0 0 0 0 0 0 0 0 0 0 0 0
0 0 0 0 0 0 0 0 0 0 0 0 0 0 0 0 0 0 0 0 0 0 0 0 0 0 0 0 0 0 0 0 0 0 0 0 0 0 0 0 0 0 0 0 0 0 0 0 0
0 0 0 0 0 0 0 0 0 0 0 0 0 0 0 0 0 0 0 0 0 0 0 0 0 0 0 0 0 0 0 0 0 0 0 0 0 0 0 0 0 0 0 0 0 0 0 0 0
0 0 0 0 0 0 0 0 0 0 0 0 0 0 0 0 0 0 0 0 0 0 0 0 0 0 0 0 0 0 0 0 0 0 0 0 0 0 0 0 0 0 0 0 0 0 0 0 0
0 0 0 0 0 0 0 0 0 0 0 0 0 0 0 0 0 0 0 0 0 0 0 0 0 0 0 0 0 0 0 0 0 0 0 0 0 0 0 0 0 0 0 0 0 0 0 0 0
0 0 0 0 0 0 0 0 -0 0 0 0 0 0 0 0 0 0 0 0 0 0 0 0 0 0 0 0 0 0 0 0 0 0 0 0 0 0 0 0 0 0 0 0 0 0 0 0 0
0 0 0 0 0 0 0 0 -0 -0 0 0 0 0 0 0 0 0 0 0 0 0 0 0 0 0 0 0 0 0 0 0 0 0 0 0 0 0 0 0 0 0 0 0 0 0 0 0 0
0 0 0 0 0 0 0 0 0 0 0 0 0 0 0 0 0 0 0 0 0 0 0 0 0 0 0 0 0 0 0 0 0 0 0 0 0 0 0 0 0 0 0 0 0 0 0 0 0
0 0 0 0 0 0 0 0 0 0 0 0 0 0 0 0 0 0 0 0 0 0 0 0 0 0 0 0 0 0 0 0 0 0 0 0 0 0 0 0 0 0 0 0 0 0 0 0 0
0 0 0 0 0 0 0 0 0 0 0 0 0 0 0 0 0 0 0 0 0 0 0 0 0 0 0 0 0 0 0 0 0 0 0 0 0 0 0 0 0 0 0 0 0 0 0 0 0
0 0 0 0 0 0 0 0 0 0 0 0 0 0 0 0 0 0 0 0 0 0 0 0 0 0 0 0 0 0 0 0 0 0 0 0 0 0 0 0 0 0 0 0 0 0 0 0 0
0 0 0 0 0 0 0 0 0 0 -0 0 0 0 0 0 0 0 0 0 0 0 0 0 0 0 0 0 0 0 0 0 0 0 0 0 0 0 0 0 0 0 0 0 0 0 0 0 0
0 0 0 0 0 0 0 0 0 -0 0 0 -0 -0 0 0 -0 0 0 0 -0 -0 0 0 0 0 0 0 0 0 0 0 0 0 0 0 0 0 0 0 0 0 0 0 0 0 0 0 0
Wind_Speed_500mb
15 4 11 10 6 9 20 28 5 5 9 20 37 14 17 21 10 6 12 14 36 49 65 50 45 39 38 29 22 17 18 28 33 35 37 40 43 45 45 43 42 38 37 42 42 42 45 47 40
14 7 10 17 10 15 18 29 15 10 22 23 24 15 21 8 6 20 24 24 37 49 66 52 45 41 36 28 20 15 23 33 37 38 37 38 40 38 33 28 41 36 42 48 42 37 37 37 36
11 7 11 8 17 20 15 9 16 25 19 20 10 4 9 9 10 19 23 38 41 56 62 53 44 42 33 26 20 16 29 40 38 38 36 34 34 31 32 43 53 48 51 48 39 33 27 19 22
5 10 15 13 23 34 34 7 7 23 15 15 18 16 15 20 15 12 36 45 48 48 56 54 46 43 33 24 21 20 29 42 39 32 30 31 32 32 35 43 46 38 33 28 26 25 24 24 13
13 15 11 16 24 31 3 12 20 3 24 17 9 16 14 9 13 22 45 50 53 48 45 49 47 45 32 27 23 23 32 41 35 30 26 27 40 35 41 38 33 31 28 22 16 14 14 14 15
20 16 12 21 27 26 10 5 5 17 22 33 20 24 11 13 18 35 49 47 45 50 46 48 47 43 31 29 24 24 32 39 36 29 25 33 43 41 42 34 27 23 19 15 10 8 7 9 14
16 14 17 24 23 13 7 10 11 14 18 15 13 8 21 24 20 35 51 36 43 38 43 53 52 43 33 28 24 26 33 37 34 31 30 38 42 45 40 31 24 18 13 10 7 8 8 8 20
18 15 30 20 21 16 8 8 9 24 7 8 11 8 19 37 32 37 47 35 31 39 41 50 54 46 38 31 26 28 34 35 36 32 39 39 39 38 33 26 20 17 13 10 8 10 9 7 27
12 7 16 22 24 14 18 7 10 10 4 6 10 21 36 37 39 40 48 37 34 36 41 45 50 44 39 34 33 32 36 37 37 36 39 39 36 32 28 24 20 15 12 11 9 9 6 12 31
10 8 17 21 10 13 9 2 3 7 14 13 19 26 28 35 38 43 52 50 42 46 45 43 45 44 39 34 33 34 37 43 42 41 40 37 33 29 26 25 27 22 19 16 9 5 17 19 27
11 18 24 30 13 17 21 11 8 9 10 16 39 35 29 32 33 32 36 46 44 47 48 50 47 42 42 40 38 38 35 45 45 41 39 37 34 32 28 27 29 28 26 24 15 13 21 21 23
23 34 28 34 12 10 10 24 9 16 7 23 31 25 23 27 30 32 34 35 46 37 51 49 48 44 45 44 39 39 38 40 49 45 42 44 41 34 35 34 36 31 30 22 24 21 24 26 21
27 13 34 35 10 6 19 20 21 32 15 4 4 16 13 15 21 29 31 32 38 43 39 48 52 60 51 48 44 42 38 38 40 49 45 45 45 41 39 31 35 36 33 31 27 25 27 28 26
19 21 27 22 17 14 8 23 33 16 30 35 20 17 19 21 22 24 30 34 40 45 42 42 50 50 53 59 51 48 45 42 41 42 50 48 44 46 42 31 40 41 40 33 28 28 31 27 32
17 15 21 22 16 12 24 20 20 41 42 39 36 44 36 33 30 32 28 32 32 34 48 43 44 54 51 57 57 49 52 52 48 44 43 45 44 42 43 36 40 44 45 38 32 35 34 31 32
16 21 18 7 28 31 16 25 14 51 56 54 51 48 43 43 42 37 36 29 32 34 35 47 47 48 58 56 54 49 59 55 58 51 46 43 45 43 43 43 42 42 45 48 41 41 38 37 33
13 23 30 30 28 25 32 15 14 32 39 42 50 47 53 49 40 44 35 36 35 35 39 41 46 51 50 54 62 61 56 56 51 57 56 52 46 51 49 43 49 45 40 50 50 47 42 41 39
19 24 29 30 21 24 23 26 12 39 37 33 32 26 28 27 26 18 35 41 43 44 42 40 44 49 46 48 52 60 62 66 63 65 63 63 55 54 53 46 49 50 47 41 54 55 47 44 44
20 21 24 27 16 5 17 25 24 34 42 36 37 32 34 23 26 29 35 35 30 38 51 54 49 49 52 52 55 66 69 68 67 69 69 69 66 61 62 58 57 58 54 49 43 54 55 47 39
15 20 28 26 31 26 28 24 23 26 42 51 46 44 34 49 44 41 42 42 41 42 40 46 54 52 53 55 59 60 64 70 73 70 69 73 73 69 71 69 65 64 61 53 51 49 52 53 53
20 20 25 27 24 22 15 31 28 32 60 71 68 59 52 56 55 51 47 41 48 54 51 45 42 51 54 57 56 61 62 66 68 68 72 73 72 71 79 78 76 72 69 67 61 56 55 56 60
21 20 26 25 16 12 14 26 16 21 28 35 62 59 64 63 62 61 47 33 26 29 34 43 46 52 59 58 62 65 74 79 80 78 77 80 82 80 81 80 88 85 79 75 70 67 62 56 60
16 12 16 17 19 18 23 17 7 21 30 20 15 24 6 13 16 15 9 8 18 27 35 43 53 59 58 65 68 64 67 74 74 74 76 79 82 85 86 88 86 96 91 86 81 78 76 71 65
23 17 20 23 13 13 30 24 10 22 32 8 20 35 29 21 17 15 11 6 7 14 18 22 23 33 45 61 72 79 73 62 74 79 81 80 80 84 96 93 89 88 97 93 93 90 87 82 76
14 8 6 6 11 12 13 18 26 10 13 16 20 30 22 17 14 9 6 5 7 10 11 11 16 21 25 33 45 67 79 72 63 77 85 88 89 90 94 97 99 97 97 97 98 97 99 95 91
21 14 7 10 6 13 17 9 5 12 18 30 40 32 24 18 14 13 11 10 10 14 15 15 15 17 17 22 28 36 50 75 72 63 78 84 88 94 101 97 98 101 99 95 98 104 106 103 100
11 13 9 9 12 10 11 19 10 11 14 18 26 27 23 15 12 13 15 18 21 22 22 22 22 21 22 21 24 27 32 41 73 77 69 79 85 88 94 98 100 101 102 102 100 106 109 108 107
16 15 9 6 8 10 11 20 16 5 14 11 10 14 4 10 14 16 24 24 27 30 31 27 25 26 28 28 27 27 29 33 40 58 87 83 73 82 84 88 91 95 99 100 102 105 105 107 109
16 5 6 11 12 15 23 13 18 14 12 6 4 25 40 32 28 26 28 33 37 35 34 33 33 30 30 32 31 30 30 30 33 42 53 74 92 80 82 86 85 87 93 95 95 96 98 102 102
24 24 18 6 15 15 24 25 24 32 9 22 26 31 24 30 26 33 44 38 38 41 36 35 40 37 35 35 35 33 31 29 31 35 39 45 58 77 87 80 85 92 96 94 93 94 100 94 96
Wind_Direction_500mb
239 240 318 274 251 225 257 240 136 25 108 90 111 138 157 116 150 185 165 178 165 173 171 167 169 163 155 150 146 143 142 141 139 131 131 125 121 118 118 127 132 134 136 126 123 122 112 123 118
236 204 249 257 241 250 243 233 140 215 89 103 85 96 141 99 87 135 135 162 175 172 172 170 171 164 155 149 147 144 149 147 146 141 139 135 129 125 124 135 146 125 126 136 125 120 119 116 123
235 198 265 217 238 241 268 94 134 101 112 128 112 12 91 83 80 134 139 157 160 169 174 175 170 168 158 152 146 138 149 155 150 149 149 145 142 139 124 119 137 126 118 122 123 116 122 117 103
237 218 260 254 250 217 254 34 302 118 124 195 145 112 85 101 129 195 153 151 155 166 177 178 178 169 161 158 146 137 148 156 155 160 163 162 162 154 143 134 130 128 128 127 124 122 130 144 139
243 260 232 231 246 273 77 3 38 67 150 178 196 142 97 116 148 140 145 155 164 161 184 180 177 171 164 160 152 145 154 159 160 165 165 168 172 162 158 151 146 139 135 132 128 127 137 147 152
245 247 249 229 248 235 154 157 142 263 206 173 182 122 107 150 146 144 145 165 167 175 182 182 178 173 167 164 156 153 158 167 167 171 164 154 161 163 161 159 155 147 144 142 153 174 180 195 173
257 252 248 261 270 251 122 193 194 241 261 145 171 163 134 135 160 150 150 176 175 180 180 178 175 175 174 169 160 160 164 172 173 172 167 159 155 159 163 164 165 166 174 177 195 246 251 203 186
280 260 268 255 273 287 86 85 222 246 205 95 158 68 155 160 153 147 149 180 178 181 179 178 178 179 179 174 168 167 172 177 179 174 172 167 164 164 166 170 180 176 188 216 242 256 253 234 178
288 270 245 248 258 264 98 143 192 298 49 103 81 90 145 154 149 148 153 182 179 183 184 186 189 188 184 181 174 174 179 182 184 177 173 178 181 182 183 186 190 204 213 241 238 240 232 187 174
214 226 256 272 329 338 27 118 294 167 235 138 102 118 148 154 156 159 164 176 185 190 190 194 194 193 196 192 187 182 184 187 188 185 180 182 186 196 203 208 219 226 231 235 206 294 181 175 176
233 242 275 282 8 30 338 2 296 337 267 202 177 159 160 159 163 168 173 181 198 191 194 202 198 198 199 206 196 192 190 192 192 197 193 191 189 197 204 227 228 221 214 205 186 215 179 177 197
261 261 281 279 44 11 318 313 307 251 74 74 80 140 161 168 176 181 182 189 184 204 200 200 204 203 198 208 208 203 193 193 192 202 203 202 203 201 215 231 228 212 205 206 206 194 187 171 166
271 280 284 289 359 333 303 294 285 290 255 102 193 140 166 191 193 187 190 193 191 196 210 208 204 208 211 218 212 202 201 199 202 204 208 211 209 204 225 236 213 198 204 207 201 206 194 187 181
2 329 314 303 275 275 243 269 263 263 283 280 260 229 226 218 205 201 198 195 198 195 203 219 213 209 210 212 215 210 199 206 203 209 212 220 211 213 224 231 206 202 209 212 206 211 198 192 185
331 306 293 266 263 257 282 251 240 251 257 255 255 252 238 229 223 214 215 202 213 214 193 217 219 212 215 213 219 223 215 210 203 214 219 217 213 220 232 221 212 214 216 213 215 206 204 199 188
285 271 271 255 236 232 173 251 265 232 236 244 247 253 240 233 229 224 216 219 216 214 216 206 224 216 215 215 211 218 218 217 212 212 222 227 216 216 212 214 220 221 223 219 214 209 207 210 207
259 266 275 283 275 255 201 245 241 256 276 249 238 245 244 234 235 214 212 222 218 220 218 218 217 231 221 219 215 220 226 231 222 223 221 224 222 215 221 224 221 229 228 219 216 214 215 212 212
253 241 251 264 270 264 280 251 273 274 288 284 286 247 245 226 214 230 230 227 222 220 215 220 222 233 240 223 214 221 227 233 229 231 229 226 224 218 225 230 215 225 230 228 223 222 217 215 213
303 298 295 293 291 312 285 292 287 299 296 286 259 264 271 274 227 237 237 232 237 230 223 220 217 222 230 231 221 222 226 231 233 231 231 230 230 225 223 224 222 229 236 234 229 223 218 213 215
299 289 282 278 274 279 282 277 280 279 282 282 282 278 262 268 267 253 245 241 240 242 242 237 222 222 222 230 235 229 228 234 237 237 236 232 232 232 228 227 223 224 228 239 237 229 217 211 210
293 269 273 282 297 286 280 272 266 254 247 246 254 259 264 264 265 264 261 255 252 248 240 234 227 221 224 227 234 238 233 235 236 233 238 236 234 232 234 230 232 230 229 230 234 237 234 222 217
290 296 301 296 294 263 245 275 259 291 304 231 240 244 247 252 254 254 253 247 240 239 225 225 233 231 223 221 226 235 234 229 233 235 235 236 241 236 237 236 232 234 233 233 233 232 232 236 231
302 351 327 310 298 296 270 278 232 246 264 258 204 219 129 97 60 67 77 219 231 249 247 246 242 240 233 226 223 229 238 242 244 239 236 240 238 243 240 238 237 233 235 236 237 235 231 232 234
283 283 271 258 245 242 243 234 257 232 242 245 89 69 74 69 57 45 23 356 295 269 258 253 250 247 243 235 230 227 230 240 240 236 235 236 238 239 242 238 241 241 237 237 238 239 238 239 238
262 271 287 239 215 237 354 239 238 288 61 99 104 96 86 71 60 49 27 9 330 301 284 268 259 260 255 252 246 238 233 233 244 243 241 239 238 237 239 240 240 241 241 240 238 241 241 241 239
304 270 302 323 294 330 288 268 227 78 68 77 106 107 101 87 66 44 17 347 329 314 302 294 281 283 282 270 262 255 246 237 235 244 242 244 248 247 242 240 241 243 240 242 242 242 241 243 243
321 307 347 305 280 277 247 264 248 124 82 78 102 109 103 76 31 1 354 343 332 324 314 311 303 294 290 291 283 273 266 252 239 234 240 246 245 249 247 246 245 242 242 240 241 240 241 243 243
228 266 308 293 301 274 257 273 284 117 97 95 107 111 98 289 301 315 327 321 318 312 311 305 301 299 296 292 293 289 280 272 260 246 239 238 246 245 243 246 243 240 241 242 241 240 242 243 244
284 221 280 262 268 268 279 274 288 111 154 225 310 286 295 302 299 297 317 316 308 308 297 300 299 294 292 293 294 295 292 283 274 267 256 246 241 243 244 241 243 244 240 239 240 242 241 244 244
278 272 269 222 259 260 261 264 305 308 268 215 241 237 261 272 267 280 300 305 301 301 294 284 287 290 288 288 290 294 294 289 284 275 264 263 258 250 243 247 243 243 246 245 244 243 241 241 247
Wind_Speed_850mb
15 4 11 10 6 9 20 28 5 5 9 20 37 14 17 21 10 6 12 14 36 49 65 50 45 39 38 29 22 17 18 28 33 35 37 40 43 45 45 43 42 38 37 42 42 42 45 47 40
14 7 10 17 10 15 18 29 15 10 22 23 24 15 21 8 6 20 24 24 37 49 66 52 45 41 36 28 20 15 23 33 37 38 37 38 40 38 33 28 41 36 42 48 42 37 37 37 36
11 7 11 8 17 20 15 9 16 25 19 20 10 4 9 9 10 19 23 38 41 56 62 53 44 42 33 26 20 16 29 40 38 38 36 34 34 31 32 43 53 48 51 48 39 33 27 19 22
5 10 15 13 23 34 34 7 7 23 15 15 18 16 15 20 15 12 36 45 48 48 56 54 46 43 33 24 21 20 29 42 39 32 30 31 32 32 35 43 46 38 33 28 26 25 24 24 13
13 15 11 16 24 31 3 12 20 3 24 17 9 16 14 9 13 22 45 50 53 48 45 49 47 45 32 27 23 23 32 41 35 30 26 27 40 35 41 38 33 31 28 22 16 14 14 14 15
20 16 12 21 27 26 10 5 5 17 22 33 20 24 11 13 18 35 49 47 45 50 46 48 47 43 31 29 24 24 32 39 36 29 25 33 43 41 42 34 27 23 19 15 10 8 7 9 14
16 14 17 24 23 13 7 10 11 14 18 15 13 8 21 24 20 35 51 36 43 38 43 53 52 43 33 28 24 26 33 37 34 31 30 38 42 45 40 31 24 18 13 10 7 8 8 8 20
18 15 30 20 21 16 8 8 9 24 7 8 11 8 19 37 32 37 47 35 31 39 41 50 54 46 38 31 26 28 34 35 36 32 39 39 39 38 33 26 20 17 13 10 8 10 9 7 27
12 7 16 22 24 14 18 7 10 10 4 6 10 21 36 37 39 40 48 37 34 36 41 45 50 44 39 34 33 32 36 37 37 36 39 39 36 32 28 24 20 15 12 11 9 9 6 12 31
10 8 17 21 10 13 9 2 3 7 14 13 19 26 28 35 38 43 52 50 42 46 45 43 45 44 39 34 33 34 37 43 42 41 40 37 33 29 26 25 27 22 19 16 9 5 17 19 27
11 18 24 30 13 17 21 11 8 9 10 16 39 35 29 32 33 32 36 46 44 47 48 50 47 42 42 40 38 38 35 45 45 41 39 37 34 32 28 27 29 28 26 24 15 13 21 21 23
23 34 28 34 12 10 10 24 9 16 7 23 31 25 23 27 30 32 34 35 46 37 51 49 48 44 45 44 39 39 38 40 49 45 42 44 41 34 35 34 36 31 30 22 24 21 24 26 21
27 13 34 35 10 6 19 20 21 32 15 4 4 16 13 15 21 29 31 32 38 43 39 48 52 60 51 48 44 42 38 38 40 49 45 45 45 41 39 31 35 36 33 31 27 25 27 28 26
19 21 27 22 17 14 8 23 33 16 30 35 20 17 19 21 22 24 30 34 40 45 42 42 50 50 53 59 51 48 45 42 41 42 50 48 44 46 42 31 40 41 40 33 28 28 31 27 32
17 15 21 22 16 12 24 20 20 41 42 39 36 44 36 33 30 32 28 32 32 34 48 43 44 54 51 57 57 49 52 52 48 44 43 45 44 42 43 36 40 44 45 38 32 35 34 31 32
16 21 18 7 28 31 16 25 14 51 56 54 51 48 43 43 42 37 36 29 32 34 35 47 47 48 58 56 54 49 59 55 58 51 46 43 45 43 43 43 42 42 45 48 41 41 38 37 33
13 23 30 30 28 25 32 15 14 32 39 42 50 47 53 49 40 44 35 36 35 35 39 41 46 51 50 54 62 61 56 56 51 57 56 52 46 51 49 43 49 45 40 50 50 47 42 41 39
19 24 29 30 21 24 23 26 12 39 37 33 32 26 28 27 26 18 35 41 43 44 42 40 44 49 46 48 52 60 62 66 63 65 63 63 55 54 53 46 49 50 47 41 54 55 47 44 44
20 21 24 27 16 5 17 25 24 34 42 36 37 32 34 23 26 29 35 35 30 38 51 54 49 49 52 52 55 66 69 68 67 69 69 69 66 61 62 58 57 58 54 49 43 54 55 47 39
15 20 28 26 31 26 28 24 23 26 42 51 46 44 34 49 44 41 42 42 41 42 40 46 54 52 53 55 59 60 64 70 73 70 69 73 73 69 71 69 65 64 61 53 51 49 52 53 53
20 20 25 27 24 22 15 31 28 32 60 71 68 59 52 56 55 51 47 41 48 54 51 45 42 51 54 57 56 61 62 66 68 68 72 73 72 71 79 78 76 72 69 67 61 56 55 56 60
21 20 26 25 16 12 14 26 16 21 28 35 62 59 64 63 62 61 47 33 26 29 34 43 46 52 59 58 62 65 74 79 80 78 77 80 82 80 81 80 88 85 79 75 70 67 62 56 60
16 12 16 17 19 18 23 17 7 21 30 20 15 24 6 13 16 15 9 8 18 27 35 43 53 59 58 65 68 64 67 74 74 74 76 79 82 85 86 88 86 96 91 86 81 78 76 71 65
23 17 20 23 13 13 30 24 10 22 32 8 20 35 29 21 17 15 11 6 7 14 18 22 23 33 45 61 72 79 73 62 74 79 81 80 80 84 96 93 89 88 97 93 93 90 87 82 76
14 8 6 6 11 12 13 18 26 10 13 16 20 30 22 17 14 9 6 5 7 10 11 11 16 21 25 33 45 67 79 72 63 77 85 88 89 90 94 97 99 97 97 97 98 97 99 95 91
21 14 7 10 6 13 17 9 5 12 18 30 40 32 24 18 14 13 11 10 10 14 15 15 15 17 17 22 28 36 50 75 72 63 78 84 88 94 101 97 98 101 99 95 98 104 106 103 100
11 13 9 9 12 10 11 19 10 11 14 18 26 27 23 15 12 13 15 18 21 22 22 22 22 21 22 21 24 27 32 41 73 77 69 79 85 88 94 98 100 101 102 102 100 106 109 108 107
16 15 9 6 8 10 11 20 16 5 14 11 10 14 4 10 14 16 24 24 27 30 31 27 25 26 28 28 27 27 29 33 40 58 87 83 73 82 84 88 91 95 99 100 102 105 105 107 109
16 5 6 11 12 15 23 13 18 14 12 6 4 25 40 32 28 26 28 33 37 35 34 33 33 30 30 32 31 30 30 30 33 42 53 74 92 80 82 86 85 87 93 95 95 96 98 102 102
24 24 18 6 15 15 24 25 24 32 9 22 26 31 24 30 26 33 44 38 38 41 36 35 40 37 35 35 35 33 31 29 31 35 39 45 58 77 87 80 85 92 96 94 93 94 100 94 96
Wind_Direction_850mb
239 240 318 274 251 225 257 240 136 25 108 90 111 138 157 116 150 185 165 178 165 173 171 167 169 163 155 150 146 143 142 141 139 131 131 125 121 118 118 127 132 134 136 126 123 122 112 123 118
236 204 249 257 241 250 243 233 140 215 89 103 85 96 141 99 87 135 135 162 175 172 172 170 171 164 155 149 147 144 149 147 146 141 139 135 129 125 124 135 146 125 126 136 125 120 119 116 123
235 198 265 217 238 241 268 94 134 101 112 128 112 12 91 83 80 134 139 157 160 169 174 175 170 168 158 152 146 138 149 155 150 149 149 145 142 139 124 119 137 126 118 122 123 116 122 117 103
237 218 260 254 250 217 254 34 302 118 124 195 145 112 85 101 129 195 153 151 155 166 177 178 178 169 161 158 146 137 148 156 155 160 163 162 162 154 143 134 130 128 128 127 124 122 130 144 139
243 260 232 231 246 273 77 3 38 67 150 178 196 142 97 116 148 140 145 155 164 161 184 180 177 171 164 160 152 145 154 159 160 165 165 168 172 162 158 151 146 139 135 132 128 127 137 147 152
245 247 249 229 248 235 154 157 142 263 206 173 182 122 107 150 146 144 145 165 167 175 182 182 178 173 167 164 156 153 158 167 167 171 164 154 161 163 161 159 155 147 144 142 153 174 180 195 173
257 252 248 261 270 251 122 193 194 241 261 145 171 163 134 135 160 150 150 176 175 180 180 178 175 175 174 169 160 160 164 172 173 172 167 159 155 159 163 164 165 166 174 177 195 246 251 203 186
280 260 268 255 273 287 86 85 222 246 205 95 158 68 155 160 153 147 149 180 178 181 179 178 178 179 179 174 168 167 172 177 179 174 172 167 164 164 166 170 180 176 188 216 242 256 253 234 178
288 270 245 248 258 264 98 143 192 298 49 103 81 90 145 154 149 148 153 182 179 183 184 186 189 188 184 181 174 174 179 182 184 177 173 178 181 182 183 186 190 204 213 241 238 240 232 187 174
214 226 256 272 329 338 27 118 294 167 235 138 102 118 148 154 156 159 164 176 185 190 190 194 194 193 196 192 187 182 184 187 188 185 180 182 186 196 203 208 219 226 231 235 206 294 181 175 176
233 242 275 282 8 30 338 2 296 337 267 202 177 159 160 159 163 168 173 181 198 191 194 202 198 198 199 206 196 192 190 192 192 197 193 191 189 197 204 227 228 221 214 205 186 215 179 177 197
261 261 281 279 44 11 318 313 307 251 74 74 80 140 161 168 176 181 182 189 184 204 200 200 204 203 198 208 208 203 193 193 192 202 203 202 203 201 215 231 228 212 205 206 206 194 187 171 166
271 280 284 289 359 333 303 294 285 290 255 102 193 140 166 191 193 187 190 193 191 196 210 208 204 208 211 218 212 202 201 199 202 204 208 211 209 204 225 236 213 198 204 207 201 206 194 187 181
2 329 314 303 275 275 243 269 263 263 283 280 260 229 226 218 205 201 198 195 198 195 203 219 213 209 210 212 215 210 199 206 203 209 212 220 211 213 224 231 206 202 209 212 206 211 198 192 185
331 306 293 266 263 257 282 251 240 251 257 255 255 252 238 229 223 214 215 202 213 214 193 217 219 212 215 213 219 223 215 210 203 214 219 217 213 220 232 221 212 214 216 213 215 206 204 199 188
285 271 271 255 236 232 173 251 265 232 236 244 247 253 240 233 229 224 216 219 216 214 216 206 224 216 215 215 211 218 218 217 212 212 222 227 216 216 212 214 220 221 223 219 214 209 207 210 207
259 266 275 283 275 255 201 245 241 256 276 249 238 245 244 234 235 214 212 222 218 220 218 218 217 231 221 219 215 220 226 231 222 223 221 224 222 215 221 224 221 229 228 219 216 214 215 212 212
253 241 251 264 270 264 280 251 273 274 288 284 286 247 245 226 214 230 230 227 222 220 215 220 222 233 240 223 214 221 227 233 229 231 229 226 224 218 225 230 215 225 230 228 223 222 217 215 213
303 298 295 293 291 312 285 292 287 299 296 286 259 264 271 274 227 237 237 232 237 230 223 220 217 222 230 231 221 222 226 231 233 231 231 230 230 225 223 224 222 229 236 234 229 223 218 213 215
299 289 282 278 274 279 282 277 280 279 282 282 282 278 262 268 267 253 245 241 240 242 242 237 222 222 222 230 235 229 228 234 237 237 236 232 232 232 228 227 223 224 228 239 237 229 217 211 210
293 269 273 282 297 286 280 272 266 254 247 246 254 259 264 264 265 264 261 255 252 248 240 234 227 221 224 227 234 238 233 235 236 233 238 236 234 232 234 230 232 230 229 230 234 237 234 222 217
290 296 301 296 294 263 245 275 259 291 304 231 240 244 247 252 254 254 253 247 240 239 225 225 233 231 223 221 226 235 234 229 233 235 235 236 241 236 237 236 232 234 233 233 233 232 232 236 231
302 351 327 310 298 296 270 278 232 246 264 258 204 219 129 97 60 67 77 219 231 249 247 246 242 240 233 226 223 229 238 242 244 239 236 240 238 243 240 238 237 233 235 236 237 235 231 232 234
283 283 271 258 245 242 243 234 257 232 242 245 89 69 74 69 57 45 23 356 295 269 258 253 250 247 243 235 230 227 230 240 240 236 235 236 238 239 242 238 241 241 237 237 238 239 238 239 238
262 271 287 239 215 237 354 239 238 288 61 99 104 96 86 71 60 49 27 9 330 301 284 268 259 260 255 252 246 238 233 233 244 243 241 239 238 237 239 240 240 241 241 240 238 241 241 241 239
304 270 302 323 294 330 288 268 227 78 68 77 106 107 101 87 66 44 17 347 329 314 302 294 281 283 282 270 262 255 246 237 235 244 242 244 248 247 242 240 241 243 240 242 242 242 241 243 243
321 307 347 305 280 277 247 264 248 124 82 78 102 109 103 76 31 1 354 343 332 324 314 311 303 294 290 291 283 273 266 252 239 234 240 246 245 249 247 246 245 242 242 240 241 240 241 243 243
228 266 308 293 301 274 257 273 284 117 97 95 107 111 98 289 301 315 327 321 318 312 311 305 301 299 296 292 293 289 280 272 260 246 239 238 246 245 243 246 243 240 241 242 241 240 242 243 244
284 221 280 262 268 268 279 274 288 111 154 225 310 286 295 302 299 297 317 316 308 308 297 300 299 294 292 293 294 295 292 283 274 267 256 246 241 243 244 241 243 244 240 239 240 242 241 244 244
278 272 269 222 259 260 261 264 305 308 268 215 241 237 261 272 267 280 300 305 301 301 294 284 287 290 288 288 290 294 294 289 284 275 264 263 258 250 243 247 243 243 246 245 244 243 241 241 247